Regional Weather Roundup
Issued by NWS

Home | Current Version | Previous Version | Text Only | Print | Product List | Glossary On
Versions: 1 2 3 4 5 6 7 8 9 10 11 12 13 14 15 16 17 18 19 20 21 22 23 24 25 26 27 28 29 30 31 32 33 34 35 36 37 38 39 40 41 42 43 44 45 46 47 48 49
000
ASPQ40 PGUM 041614
RWRPQ
WEATHER ROUNDUP FOR THE MARIANAS AND MICRONESIA
NATIONAL WEATHER SERVICE TIYAN GU
200 AM CHST WED AUG 05 2015

GUZ001>004-041700-
MARIANA ISLANDS-

CITY           SKY/WX    TMP DP  RH WIND       PRES   REMARKS
GUAM AIRPORT   PTCLDY    77  75  94 S6        29.69F FOG
ANDERSEN AFB   CLEAR     77  75  94 SW18      29.68F
ROTA AIRPORT   NOT AVBL
TINIAN AP      NOT AVBL
SAIPAN AP      NOT AVBL

$$

PMZ161-041700-
REPUBLIC OF PALAU-

CITY           SKY/WX    TMP DP  RH WIND       PRES   REMARKS
KOROR AP       CLOUDY    81  75  83 W20G29    29.70F
KOROR WSO      CLOUDY    81  73  78 W10       29.73F

$$

PMZ171>174-041700-
FEDERATED STATES OF MICRONESIA-

CITY           SKY/WX    TMP DP  RH WIND       PRES   REMARKS
YAP AIRPORT    CLOUDY    81  77  89 SW14      29.66F
CHUUK AP       MOCLDY    81  77  89 VRB5      29.74F
POHNPEI AP     NOT AVBL
POHNPEI WSO    LGT RAIN  75  75 100 W3        29.81F
KOSRAE AP      NOT AVBL

$$

PMZ181-041700-
REPUBLIC OF THE MARSHALL ISLANDS-

CITY           SKY/WX    TMP DP  RH WIND       PRES   REMARKS
KWAJALEIN AP   CLEAR     82  73  74 NE8       29.74F
MAJURO AP      NOT AVBL
MAJURO WSO     CLOUDY    82  77  83 E7        29.72S HX  91

$$




USA.gov is the U.S. government's official web portal to all federal, state and local government web resources and services.